�������l�o���
Date,Time,MP-1(��Sv/h),MP-2(��Sv/h),MP-3(��Sv/h),MP-4(��Sv/h),MP-5(��Sv/h),MP-6(��Sv/h),MP-7(��Sv/h),MP-8(��Sv/h),����,����(m/s),���J
2024/05/05,00:00,0.520,0.792,0.495,0.989,0.716,0.320,0.562,0.523,���쓌,2.6,��
2024/05/05,00:10,0.520,0.795,0.495,0.991,0.717,0.319,0.561,0.523,���쓌,2.8,��
2024/05/05,00:20,0.521,0.790,0.494,0.989,0.716,0.319,0.562,0.521,��,2.3,��
2024/05/05,00:30,0.521,0.792,0.497,0.990,0.718,0.320,0.562,0.524,���k��,2.5,��
2024/05/05,00:40,0.521,0.793,0.495,0.989,0.716,0.319,0.562,0.523,�k��,2.0,��
2024/05/05,00:50,0.521,0.793,0.495,0.989,0.716,0.320,0.560,0.523,�k,2.3,��
2024/05/05,01:00,0.523,0.794,0.495,0.988,0.716,0.320,0.560,0.523,�k�k��,3.5,��
2024/05/05,01:10,0.521,0.793,0.495,0.989,0.718,0.320,0.561,0.523,�k�k��,3.3,��
2024/05/05,01:20,0.520,0.791,0.495,0.990,0.717,0.321,0.561,0.523,�k�k��,3.2,��
2024/05/05,01:30,0.522,0.794,0.495,0.987,0.716,0.320,0.562,0.523,�k�k��,3.9,��
2024/05/05,01:40,0.521,0.791,0.495,0.987,0.717,0.321,0.562,0.522,�k�k��,5.0,��
2024/05/05,01:50,0.520,0.792,0.495,0.987,0.718,0.321,0.560,0.523,�k�k��,5.0,��
2024/05/05,02:00,0.521,0.792,0.496,0.990,0.717,0.319,0.563,0.522,�k�k��,4.2,��
2024/05/05,02:10,0.521,0.791,0.494,0.988,0.718,0.321,0.561,0.523,�k�k��,5.1,��
2024/05/05,02:20,0.519,0.792,0.496,0.989,0.716,0.320,0.559,0.523,�k,5.3,��
2024/05/05,02:30,0.521,0.790,0.494,0.991,0.714,0.320,0.560,0.521,�k�k��,6.5,��
2024/05/05,02:40,0.522,0.791,0.494,0.987,0.715,0.320,0.560,0.522,�k�k��,6.3,��
2024/05/05,02:50,0.520,0.792,0.495,0.988,0.717,0.321,0.562,0.522,�k�k��,5.7,��
2024/05/05,03:00,0.520,0.793,0.495,0.987,0.716,0.318,0.560,0.522,�k�k��,5.6,��
2024/05/05,03:10,0.520,0.791,0.494,0.988,0.716,0.319,0.560,0.522,�k�k��,6.2,��
2024/05/05,03:20,0.520,0.793,0.493,0.987,0.716,0.320,0.561,0.522,�k�k��,5.4,��
2024/05/05,03:30,0.519,0.791,0.495,0.988,0.718,0.319,0.560,0.522,�k,5.1,��
2024/05/05,03:40,0.519,0.793,0.494,0.986,0.715,0.318,0.561,0.521,�k�k��,3.7,��
2024/05/05,03:50,0.520,0.792,0.494,0.987,0.715,0.319,0.561,0.523,�k,2.9,��
2024/05/05,04:00,0.520,0.792,0.494,0.985,0.717,0.318,0.560,0.521,�k�k��,4.1,��
2024/05/05,04:10,0.519,0.791,0.495,0.988,0.715,0.318,0.559,0.521,�k�k��,3.3,��
2024/05/05,04:20,0.519,0.792,0.493,0.987,0.716,0.319,0.560,0.522,�k�k��,2.9,��
2024/05/05,04:30,0.520,0.790,0.494,0.988,0.717,0.320,0.560,0.521,�k�k��,2.3,��
2024/05/05,04:40,0.520,0.791,0.494,0.986,0.715,0.319,0.561,0.520,�k,2.3,��
2024/05/05,04:50,0.518,0.789,0.493,0.987,0.714,0.318,0.559,0.523,�k,1.9,��
2024/05/05,05:00,0.519,0.790,0.494,0.985,0.716,0.318,0.561,0.522,�k,1.2,��
2024/05/05,05:10,0.519,0.790,0.493,0.988,0.717,0.319,0.561,0.523,�k�k��,1.1,��
2024/05/05,05:20,0.520,0.792,0.493,0.986,0.715,0.319,0.560,0.522,�k��,0.8,��
2024/05/05,05:30,0.520,0.792,0.494,0.987,0.715,0.318,0.560,0.522,-,CALM,��
2024/05/05,05:40,0.517,0.792,0.495,0.986,0.716,0.318,0.561,0.521,���쓌,0.9,��
2024/05/05,05:50,0.520,0.791,0.492,0.986,0.715,0.318,0.559,0.524,�쓌,1.2,��
2024/05/05,06:00,0.519,0.792,0.494,0.988,0.715,0.319,0.561,0.521,�쓌,1.2,��
2024/05/05,06:10,0.518,0.792,0.495,0.987,0.716,0.318,0.561,0.522,��쓌,1.2,��
2024/05/05,06:20,0.520,0.791,0.494,0.985,0.716,0.320,0.560,0.522,-,CALM,��
2024/05/05,06:30,0.521,0.792,0.494,0.987,0.716,0.319,0.560,0.522,��쓌,0.6,��
2024/05/05,06:40,0.520,0.791,0.493,0.987,0.716,0.319,0.562,0.523,�쓌,0.9,��
2024/05/05,06:50,0.519,0.790,0.495,0.985,0.716,0.319,0.561,0.523,��,0.9,��
2024/05/05,07:00,0.520,0.787,0.495,0.986,0.716,0.318,0.560,0.521,��쓌,0.8,��
2024/05/05,07:10,0.520,0.787,0.493,0.987,0.713,0.317,0.561,0.521,��,1.2,��
2024/05/05,07:20,0.521,0.789,0.495,0.988,0.715,0.317,0.560,0.522,��쓌,1.2,��
2024/05/05,07:30,0.518,0.789,0.493,0.988,0.714,0.318,0.562,0.524,��쓌,2.0,��
2024/05/05,07:40,0.518,0.789,0.494,0.988,0.713,0.317,0.561,0.523,��쓌,1.7,��
2024/05/05,07:50,0.519,0.789,0.494,0.989,0.713,0.317,0.561,0.522,�쓌,1.5,��
2024/05/05,08:00,0.520,0.791,0.494,0.989,0.713,0.316,0.560,0.524,�쓌,1.7,��
2024/05/05,08:10,0.517,0.788,0.495,0.988,0.713,0.318,0.560,0.521,�쓌,1.4,��
2024/05/05,08:20,0.518,0.790,0.494,0.990,0.714,0.317,0.559,0.523,�쓌,1.7,��
2024/05/05,08:30,0.519,0.789,0.494,0.988,0.717,0.317,0.560,0.520,���쓌,1.5,��
2024/05/05,08:40,0.518,0.792,0.494,0.990,0.716,0.318,0.558,0.521,�쓌,1.5,��
2024/05/05,08:50,0.518,0.791,0.494,0.988,0.716,0.317,0.558,0.521,�쓌,2.0,��
2024/05/05,09:00,0.518,0.791,0.493,0.988,0.715,0.317,0.557,0.521,�쓌,2.2,��
2024/05/05,09:10,0.519,0.793,0.492,0.989,0.715,0.319,0.558,0.521,�쓌,1.9,��
2024/05/05,09:20,0.519,0.788,0.491,0.987,0.714,0.318,0.558,0.522,���쓌,2.0,��
2024/05/05,09:30,0.520,0.792,0.492,0.988,0.713,0.317,0.557,0.520,���쓌,2.8,��
2024/05/05,09:40,0.519,0.791,0.492,0.987,0.715,0.318,0.560,0.521,���쓌,2.0,��
2024/05/05,09:50,0.517,0.792,0.494,0.989,0.715,0.319,0.558,0.521,�쓌,2.5,��
2024/05/05,10:00,0.520,0.792,0.494,0.989,0.715,0.318,0.559,0.521,�쓌,2.2,��
2024/05/05,10:10,0.520,0.791,0.492,0.989,0.715,0.317,0.559,0.521,�쓌,2.3,��
2024/05/05,10:20,0.519,0.793,0.494,0.990,0.715,0.320,0.558,0.522,�쓌,2.3,��
2024/05/05,10:30,0.520,0.792,0.493,0.989,0.716,0.318,0.558,0.521,�쓌,2.6,��
2024/05/05,10:40,0.520,0.792,0.494,0.988,0.714,0.319,0.560,0.521,�쓌,2.3,��
2024/05/05,10:50,0.519,0.794,0.494,0.991,0.716,0.318,0.558,0.521,�쓌,2.6,��
2024/05/05,11:00,0.521,0.792,0.493,0.990,0.716,0.320,0.558,0.521,�쓌,2.3,��
2024/05/05,11:10,0.520,0.792,0.495,0.988,0.716,0.319,0.558,0.520,�쓌,3.1,��
2024/05/05,11:20,0.523,0.792,0.493,0.989,0.717,0.318,0.558,0.521,�쓌,2.3,��
2024/05/05,11:30,0.522,0.793,0.495,0.985,0.718,0.319,0.559,0.521,�쓌,2.3,��
2024/05/05,11:40,0.521,0.792,0.495,0.985,0.715,0.319,0.559,0.522,�쓌,2.5,��
2024/05/05,11:50,0.521,0.791,0.494,0.984,0.716,0.318,0.558,0.522,���쓌,2.9,��
2024/05/05,12:00,0.520,0.793,0.495,0.987,0.718,0.319,0.559,0.521,��,2.2,��
2024/05/05,12:10,0.519,0.793,0.494,0.986,0.717,0.319,0.560,0.522,���쓌,3.1,��
2024/05/05,12:20,0.519,0.791,0.495,0.988,0.716,0.318,0.560,0.522,���k��,1.2,��
2024/05/05,12:30,0.522,0.792,0.496,0.986,0.717,0.318,0.559,0.522,��쓌,2.5,��
2024/05/05,12:40,0.522,0.792,0.495,0.988,0.719,0.319,0.559,0.521,��,3.0,��
2024/05/05,12:50,0.521,0.794,0.495,0.988,0.718,0.319,0.559,0.522,��쓌,5.4,��
2024/05/05,13:00,0.521,0.793,0.496,0.987,0.717,0.319,0.559,0.522,��쓌,5.9,��
2024/05/05,13:10,0.522,0.792,0.495,0.988,0.718,0.321,0.559,0.520,��쓌,6.4,��
2024/05/05,13:20,0.522,0.793,0.496,0.988,0.717,0.320,0.560,0.522,��쓌,5.5,��
2024/05/05,13:30,0.520,0.792,0.496,0.988,0.718,0.321,0.561,0.521,��,5.4,��
2024/05/05,13:40,0.522,0.792,0.496,0.988,0.717,0.320,0.561,0.521,��,5.7,��
2024/05/05,13:50,0.521,0.790,0.494,0.989,0.717,0.321,0.560,0.522,��쐼,5.6,��
2024/05/05,14:00,0.521,0.792,0.496,0.987,0.716,0.320,0.563,0.522,��,6.0,��
2024/05/05,14:10,0.521,0.791,0.495,0.989,0.718,0.321,0.563,0.523,��,9.1,��
2024/05/05,14:20,0.521,0.792,0.495,0.990,0.718,0.320,0.562,0.523,��,11.3,��
2024/05/05,14:30,0.519,0.793,0.497,0.988,0.720,0.320,0.563,0.522,��쓌,11.6,��
2024/05/05,14:40,0.522,0.792,0.496,0.990,0.718,0.319,0.562,0.521,��,9.2,��
2024/05/05,14:50,0.521,0.794,0.496,0.989,0.720,0.320,0.562,0.522,��,9.7,��
2024/05/05,15:00,0.520,0.794,0.498,0.988,0.719,0.320,0.561,0.523,��,9.3,��
2024/05/05,15:10,0.521,0.795,0.499,0.986,0.721,0.320,0.561,0.521,��,9.3,��
2024/05/05,15:20,0.521,0.794,0.497,0.989,0.720,0.320,0.561,0.523,��,10.3,��
2024/05/05,15:30,0.520,0.795,0.498,0.989,0.722,0.319,0.560,0.522,��,9.6,��
2024/05/05,15:40,0.520,0.795,0.498,0.991,0.720,0.319,0.561,0.522,��쓌,9.3,��
2024/05/05,15:50,0.521,0.795,0.498,0.990,0.720,0.319,0.561,0.522,��쓌,9.4,��
2024/05/05,16:00,0.521,0.795,0.497,0.990,0.721,0.321,0.562,0.522,��,10.9,��
2024/05/05,16:10,0.521,0.793,0.496,0.992,0.721,0.321,0.561,0.520,��,9.4,��
2024/05/05,16:20,0.521,0.794,0.498,0.989,0.720,0.321,0.560,0.521,��,9.0,��
2024/05/05,16:30,0.522,0.792,0.498,0.991,0.720,0.321,0.563,0.522,��,10.2,��
2024/05/05,16:40,0.519,0.793,0.498,0.992,0.720,0.320,0.561,0.523,��,9.3,��
2024/05/05,16:50,0.520,0.793,0.496,0.993,0.719,0.320,0.561,0.524,��,10.2,��
2024/05/05,17:00,0.518,0.792,0.497,0.990,0.718,0.321,0.559,0.523,��,9.8,��
2024/05/05,17:10,0.520,0.792,0.495,0.991,0.717,0.322,0.560,0.523,��,9.3,��
2024/05/05,17:20,0.521,0.791,0.494,0.992,0.721,0.320,0.559,0.524,��,10.7,��
2024/05/05,17:30,0.522,0.791,0.496,0.989,0.720,0.320,0.559,0.523,��,11.4,��
2024/05/05,17:40,0.521,0.791,0.496,0.992,0.721,0.323,0.559,0.524,��,11.3,��
2024/05/05,17:50,0.521,0.792,0.495,0.991,0.722,0.321,0.560,0.522,��,12.4,��
2024/05/05,18:00,0.520,0.792,0.495,0.989,0.721,0.322,0.559,0.525,��,13.1,��
2024/05/05,18:10,0.519,0.793,0.495,0.988,0.720,0.319,0.558,0.523,��,12.1,��
2024/05/05,18:20,0.519,0.794,0.495,0.990,0.721,0.321,0.559,0.524,��,12.7,��
2024/05/05,18:30,0.519,0.796,0.496,0.989,0.721,0.321,0.560,0.524,��,11.6,��
2024/05/05,18:40,0.520,0.793,0.495,0.990,0.720,0.321,0.560,0.523,��,9.9,��
2024/05/05,18:50,0.521,0.794,0.496,0.989,0.720,0.321,0.559,0.525,��,10.6,��
2024/05/05,19:00,0.519,0.795,0.496,0.992,0.721,0.320,0.561,0.523,��,10.2,��
2024/05/05,19:10,0.519,0.793,0.496,0.991,0.721,0.320,0.561,0.522,��,10.2,��
2024/05/05,19:20,0.521,0.794,0.497,0.994,0.720,0.319,0.562,0.522,��,10.2,��
2024/05/05,19:30,0.520,0.794,0.496,0.990,0.719,0.320,0.561,0.522,��,11.4,��
2024/05/05,19:40,0.523,0.797,0.498,0.991,0.721,0.321,0.562,0.524,��,11.7,��
2024/05/05,19:50,0.522,0.795,0.497,0.992,0.720,0.320,0.560,0.524,��,12.4,��
2024/05/05,20:00,0.521,0.794,0.497,0.993,0.722,0.320,0.561,0.524,��,11.6,��
2024/05/05,20:10,0.521,0.796,0.497,0.994,0.719,0.319,0.563,0.523,��,12.4,��
2024/05/05,20:20,0.522,0.794,0.497,0.989,0.722,0.319,0.561,0.523,��,12.4,��
2024/05/05,20:30,0.521,0.796,0.498,0.992,0.721,0.319,0.562,0.524,��,11.7,��
2024/05/05,20:40,0.524,0.795,0.495,0.991,0.721,0.320,0.560,0.523,��,12.1,��
2024/05/05,20:50,0.523,0.793,0.497,0.990,0.720,0.320,0.561,0.524,��,11.1,��
2024/05/05,21:00,0.523,0.795,0.497,0.993,0.719,0.319,0.560,0.523,��,12.7,��
2024/05/05,21:10,0.523,0.795,0.496,0.991,0.719,0.318,0.561,0.522,��,11.7,��
2024/05/05,21:20,0.522,0.795,0.496,0.992,0.720,0.320,0.560,0.523,��,12.2,��
2024/05/05,21:30,0.523,0.794,0.497,0.991,0.720,0.320,0.561,0.523,��,11.6,��
2024/05/05,21:40,0.521,0.794,0.496,0.991,0.720,0.319,0.560,0.523,��,11.4,��
2024/05/05,21:50,0.521,0.793,0.496,0.992,0.721,0.320,0.562,0.523,��,12.1,��
2024/05/05,22:00,0.523,0.796,0.497,0.993,0.719,0.320,0.560,0.524,��,11.8,��
2024/05/05,22:10,0.521,0.795,0.497,0.992,0.722,0.319,0.561,0.523,��,12.1,��
2024/05/05,22:20,0.521,0.796,0.497,0.991,0.720,0.318,0.560,0.523,��,12.7,��
2024/05/05,22:30,0.521,0.795,0.497,0.991,0.720,0.319,0.560,0.524,��,12.4,��
2024/05/05,22:40,0.523,0.796,0.496,0.992,0.721,0.318,0.562,0.523,��,13.5,��
2024/05/05,22:50,0.520,0.794,0.497,0.993,0.721,0.318,0.560,0.522,��,12.2,��
2024/05/05,23:00,0.524,0.797,0.496,0.991,0.720,0.319,0.561,0.523,��,12.8,��
2024/05/05,23:10,0.522,0.795,0.498,0.991,0.721,0.319,0.561,0.523,��쐼,11.7,��
2024/05/05,23:20,0.522,0.794,0.498,0.992,0.721,0.319,0.561,0.524,��,13.5,��
2024/05/05,23:30,0.523,0.794,0.497,0.992,0.719,0.320,0.561,0.524,��,13.1,��
2024/05/05,23:40,0.520,0.796,0.497,0.993,0.720,0.319,0.559,0.524,��,12.4,��
2024/05/05,23:50,0.520,0.792,0.497,0.993,0.721,0.318,0.561,0.523,��,12.4,��
